Location: Bacharowice
(49.9333°N, 19.5833°E)
Time: 08:05:18
(UTC+00:00)

Cosmos 2344 - Pass Details

Date: 27 September 2021
Orbit: 1235 x 3007 km, 63.3° (Epoch: 19 October)

Event Time Altitude Azimuth Distance (km) Brightness Sun altitude
Rises 21:05:26 0° 313° (NW) 4,381 7.2 -38.6°
Reaches altitude 10° 21:08:02 10° 317° (NW) 3,520 6.5 -38.8°
Maximum altitude 21:16:39 67° 40° (NE) 1,838 4.2 -39.4°
Enters shadow 21:16:58 67° 50° (NE) 1,855 4.2 -39.4°
